Location: Unspecified
(0.0000°N, 0.0000°E)
Time: 06:10:46
(UTC+00:00)

Explorer 7 - Pass Details

Date: 05 October 2020
Orbit: 484 x 678 km, 50.3° (Epoch: 28 October)

Event Time Altitude Azimuth Distance (km) Brightness Sun altitude
Rises 18:33:00 0° 198° (SSW) 2,547 10.5 -11.2°
Reaches altitude 10° 18:35:23 10° 185° (S) 1,675 9.4 -11.7°
Maximum altitude 18:38:35 26° 126° (SE) 1,012 7.8 -12.5°
Enters shadow 18:40:01 21° 92° (E) 1,187 7.9 -12.9°
Drops below altitude 10° 18:41:52 10° 69° (ENE) 1,726 - -13.4°
Sets 18:44:22 0° 56° (NE) 2,641 - -14.0°
